Location: Darlington Observatory
(36.4817°N, 105.8156°W)
Time: 05:59:57
(UTC-06:00)

MOS 1 - Visible Passes

Search period start: 21 October 2014 00:00
Search period end: 31 October 2014 00:00
Orbit: 879 x 893 km, 99.2° (Epoch: 19 October)

Date Brightness Start Highest point End Pass type
(mag) Time Alt. Az. Time Alt. Az. Time Alt. Az.
21 Oct 5.4 05:20:21 10° NNE 05:25:44 44° E 05:31:06 10° S visible
22 Oct 5.5 05:18:49 10° NNE 05:24:10 42° E 05:29:29 10° S visible
23 Oct 5.5 05:17:16 10° NNE 05:22:35 41° E 05:27:53 10° S visible
24 Oct 5.6 05:15:44 10° NNE 05:21:00 40° E 05:26:16 10° SSE visible
25 Oct 5.7 05:14:11 10° NNE 05:19:26 38° E 05:24:39 10° SSE visible
26 Oct 5.7 05:12:39 10° NNE 05:17:51 37° E 05:23:02 10° SSE visible
27 Oct 5.8 05:11:06 10° NNE 05:16:16 36° E 05:21:24 10° SSE visible
27 Oct 5.1 06:52:41 10° N 06:57:26 29° WNW 07:02:11 10° SW visible
28 Oct 5.9 05:09:34 10° NNE 05:14:41 34° E 05:19:47 10° SSE visible
28 Oct 5.1 06:51:04 10° N 06:55:53 30° WNW 07:00:41 10° SW visible
29 Oct 5.9 05:08:02 10° NE 05:13:06 33° E 05:18:09 10° SSE visible
29 Oct 5.0 06:49:27 10° N 06:54:19 31° WNW 06:59:11 10° SW visible
30 Oct 6.0 05:06:29 10° NE 05:11:31 32° E 05:16:31 10° SSE visible
30 Oct 5.0 06:47:51 10° N 06:52:46 32° WNW 06:57:41 10° SW visible
